Ana Sayfa
METAR-TAF:

METAR-TAF

Havaalanları :

Alpine-Casparis Municipal Airport

Alpine, Teksas, Amerika Birleşik Devletleri

Enlem: 30-23-03N, Boylam: 103-41-00W, yükseklik: 1376 m

Güncel hava durumu gözlemi

Rapor saat 18:35 UTC de 14 dakika önce yapıldı.
Sakin rüzgar
Sıcaklık 7°C
Nem 76%
Basınç 1025 hPa
Görüş mesafesi: 16.1 km
1800 ft yükseklikte parçalı çok bulutlu
11000 ft yükseklikte çok bulutlu

METAR: KE38 191835Z AUTO 00000KT 10SM BKN018 OVC110 07/03 A3027 RMK AO2 T00710027

Saat: 12:49 (18:49 UTC)


TAF: eksik

4.000'den fazla havaalanı için hava durumu gözlemleri ve tahminleri (METAR ve TAF raporları).

Kullanılabilir istasyonlar harita üzerinde sarı ve kırmızı noktalarla gösterilir.

İstasyonun adını görmek için fareyi noktanın üzerinde gezdirin.

Sonrasında hava gözlem ve tahminlerini görmek için tıklayın.

Haritayı değiştirmek için: yaklaştırmak için siyah artı işaretli yeşil düğmeye ve uzaklaştırmak için de eksi işaretli düğmeye hızla tıklayın; bitişik haritalar için yeşil okları kullanın.


METAR-TAF: